SQ9RHX-13 Weather Reports


time (UTC)temp
F
wind
direction
speed
knots
gust
knots
rain 1hr
in
rain 24hr
in
rain mn
in
humidity
%
barometer
mb
20260508034504 48 11 0.9 0.9 0.00 0.00 0.00 88 1021.5
20260508034003 48 13 0.9 1.7 0.00 0.00 0.00 89 1021.3
20260508033503 48 42 0.9 1.7 0.00 0.00 0.00 90 1021.2
20260508033003 48 29 0.0 0.0 0.00 0.00 0.00 90 1021.3
20260508032503 48 34 0.0 0.0 0.00 0.00 0.00 90 1021.1
20260508032006 48 16 0.9 1.7 0.00 0.00 0.00 90 1021.2
20260508031505 48 32 1.7 1.7 0.00 0.00 0.00 91 1021.3
20260508031004 48 29 0.0 0.0 0.00 0.00 0.00 91 1021.2
20260508030504 48 25 0.0 0.9 0.00 0.00 0.00 91 1021.1
20260508030003 48 30 0.0 0.9 0.00 0.00 0.00 91 1021.0
20260508025504 48 9 0.9 1.7 0.00 0.00 0.00 91 1020.9
20260508025002 48 35 0.0 1.7 0.00 0.00 0.00 91 1021.1
20260508024502 48 25 0.0 1.7 0.00 0.00 0.00 91 1020.9
20260508024003 48 15 0.0 2.6 0.00 0.00 0.00 91 1020.7
20260508023503 48 21 0.0 1.7 0.00 0.00 0.00 91 1020.9
20260508023004 48 25 0.9 0.9 0.00 0.00 0.00 91 1021.1
20260508022503 48 28 1.7 1.7 0.00 0.00 0.00 91 1020.8
20260508022004 48 17 0.9 1.7 0.00 0.00 0.00 91 1020.9
20260508021003 48 14 0.0 0.9 0.00 0.00 0.00 91 1021.0
20260508020506 48 2 0.9 1.7 0.00 0.00 0.00 91 1020.8
20260508015504 48 37 0.9 1.7 0.00 0.00 0.00 91 1021.0
20260508015003 48 34 0.0 1.7 0.00 0.00 0.00 91 1020.7
20260508014504 48 0 0.0 1.7 0.00 0.00 0.00 91 1020.9
20260508014005 48 20 0.9 1.7 0.00 0.00 0.00 91 1020.9
20260508013504 48 6 0.9 1.7 0.00 0.00 0.00 90 1020.8
20260508013003 48 30 1.7 1.7 0.00 0.00 0.00 90 1020.8
20260508012503 48 15 1.7 1.7 0.00 0.00 0.00 90 1020.8
20260508012004 48 10 0.9 1.7 0.00 0.00 0.00 90 1021.0
20260508011004 48 17 0.9 2.6 0.00 0.00 0.00 90 1021.0
20260508010504 48 25 0.0 1.7 0.00 0.00 0.00 90 1020.9
20260508010005 49 21 0.0 0.9 0.00 0.00 0.00 90 1020.9
20260508005503 49 15 0.9 2.6 0.00 0.00 0.00 90 1021.0
20260508005004 49 3 1.7 1.7 0.00 0.00 0.00 90 1020.8
20260508004504 49 37 0.0 1.7 0.00 0.00 0.00 90 1020.8
20260508004003 49 4 1.7 1.7 0.00 0.00 0.00 90 1020.8
20260508003503 49 24 0.0 0.9 0.00 0.00 0.00 90 1020.8
20260508003004 49 9 1.7 1.7 0.00 0.00 0.00 90 1020.8
20260508002503 49 19 0.0 0.9 0.00 0.00 0.00 90 1020.8
20260508002002 49 18 0.9 1.7 0.00 0.00 0.00 91 1020.7
20260508001505 49 18 0.9 1.7 0.00 0.00 0.00 91 1020.8
20260508000505 49 24 0.0 0.9 0.00 0.00 0.00 91 1020.8
20260508000006 49 14 0.0 0.9 0.00 0.00 0.00 91 1020.9
20260507235503 49 10 0.0 0.9 0.00 0.00 0.00 91 1020.8
20260507235004 49 11 0.0 0.0 0.00 0.00 0.00 91 1020.9
20260507234503 49 11 0.0 0.0 0.00 0.00 0.00 91 1020.9
20260507234004 49 10 0.0 0.9 0.00 0.00 0.00 91 1020.9
20260507233505 49 35 0.0 0.9 0.00 0.00 0.00 91 1020.8
20260507233004 49 18 0.9 2.6 0.00 0.00 0.00 90 1020.8
20260507232004 49 20 0.0 0.9 0.00 0.00 0.00 91 1020.7
20260507231503 49 21 0.0 1.7 0.00 0.00 0.00 91 1020.8
20260507231004 49 30 0.0 0.0 0.00 0.00 0.00 91 1020.7
20260507230504 49 20 0.9 2.6 0.00 0.00 0.00 91 1021.0
20260507230003 49 17 0.0 0.9 0.00 0.00 0.00 91 1021.0
20260507225503 49 354 0.9 2.6 0.00 0.00 0.00 91 1020.9
20260507225003 49 14 0.0 1.7 0.00 0.00 0.00 91 1020.9
20260507224504 49 21 0.0 0.9 0.00 0.00 0.00 91 1020.9
20260507224004 49 356 0.9 0.9 0.00 0.00 0.00 90 1020.9
20260507223503 49 359 0.9 1.7 0.00 0.00 0.00 90 1021.0
20260507223003 49 10 0.0 0.9 0.00 0.00 0.00 90 1021.0
20260507222504 49 28 0.0 1.7 0.00 0.00 0.00 90 1020.9
20260507222003 49 23 0.0 0.9 0.00 0.00 0.00 89 1020.9
20260507221503 49 10 0.9 1.7 0.00 0.00 0.00 89 1020.8
20260507221008 49 359 0.9 2.6 0.00 0.00 0.00 90 1020.9
20260507220502 49 14 1.7 2.6 0.00 0.00 0.00 90 1020.7
20260507220004 49 23 0.0 0.9 0.00 0.00 0.28 90 1020.9
20260507215504 49 0 0.9 1.7 0.00 0.00 0.28 90 1020.8
20260507215006 49 21 0.0 0.0 0.00 0.00 0.28 89 1020.8
20260507214503 49 25 0.9 1.7 0.00 0.00 0.28 89 1020.6
20260507214003 49 25 0.0 0.9 0.00 0.00 0.28 89 1020.7
20260507213503 49 358 0.9 1.7 0.00 0.00 0.28 89 1020.6
20260507213003 49 28 0.0 1.7 0.00 0.00 0.28 89 1020.7
20260507212502 49 14 0.9 0.9 0.00 0.00 0.28 89 1020.7
20260507212006 49 17 0.9 1.7 0.00 0.00 0.28 89 1020.5
20260507211503 49 9 0.9 1.7 0.00 0.00 0.28 89 1020.6
20260507211006 49 18 0.9 1.7 0.00 0.00 0.28 88 1020.6
20260507210505 49 17 0.0 0.9 0.00 0.00 0.28 88 1020.6
20260507210003 49 20 0.9 0.9 0.00 0.00 0.28 88 1020.6
20260507205506 49 30 0.0 1.7 0.00 0.00 0.28 89 1020.3
20260507205002 49 17 0.9 1.7 0.00 0.00 0.28 89 1020.6
20260507204502 50 349 0.9 2.6 0.00 0.00 0.28 88 1020.3
20260507204004 50 29 0.9 1.7 0.00 0.00 0.28 89 1020.4
20260507203004 50 24 0.0 0.0 0.00 0.00 0.28 89 1020.4
20260507202503 50 33 0.9 0.9 0.00 0.00 0.28 89 1020.3
20260507202003 50 43 0.9 1.7 0.00 0.00 0.28 89 1020.1
20260507201503 50 42 1.7 2.6 0.00 0.00 0.28 88 1020.2
20260507201003 50 29 0.9 1.7 0.00 0.00 0.28 88 1020.3
20260507200503 50 45 0.9 1.7 0.00 0.00 0.28 88 1020.4
20260507200002 50 24 0.0 1.7 0.00 0.00 0.28 88 1020.3
20260507195502 50 34 0.0 1.7 0.00 0.00 0.28 88 1020.2
20260507195003 50 8 0.9 2.6 0.00 0.00 0.28 88 1020.2
20260507194502 50 344 1.7 1.7 0.00 0.00 0.28 88 1020.1
20260507194003 50 13 0.9 1.7 0.00 0.00 0.28 88 1020.0
20260507193504 50 38 1.7 4.3 0.00 0.00 0.28 88 1019.9
20260507193002 50 20 1.7 2.6 0.00 0.00 0.28 88 1019.9
20260507192502 50 9 0.9 1.7 0.00 0.00 0.28 89 1019.8
20260507192003 50 9 0.9 2.6 0.00 0.00 0.28 88 1019.7
20260507191502 50 7 0.9 2.6 0.00 0.00 0.28 88 1019.7
20260507191003 50 5 0.0 2.6 0.00 0.00 0.28 88 1019.8
20260507185507 50 1 0.9 2.6 0.00 0.00 0.28 88 1019.4
20260507185002 50 16 0.9 4.3 0.00 0.00 0.28 88 1019.3
20260507184505 50 342 2.6 4.3 0.00 0.00 0.28 88 1019.2
20260507184003 50 11 0.0 2.6 0.00 0.00 0.28 88 1019.1
20260507183504 50 356 1.7 2.6 0.00 0.00 0.28 88 1019.2
20260507183006 50 18 0.0 2.6 0.00 0.00 0.28 88 1019.4
20260507182006 50 22 0.9 1.7 0.00 0.00 0.28 88 1018.9
20260507181503 50 28 0.9 1.7 0.00 0.00 0.28 88 1018.8
20260507181003 51 21 0.9 2.6 0.00 0.00 0.28 88 1018.9
20260507180504 51 34 0.9 0.9 0.00 0.00 0.28 88 1018.7
20260507180004 51 13 1.7 2.6 0.00 0.00 0.28 88 1018.7
20260507175503 51 1 0.9 0.9 0.00 0.00 0.28 88 1018.9
20260507175003 51 24 1.7 4.3 0.00 0.00 0.28 88 1018.6
20260507174506 51 25 1.7 4.3 0.00 0.00 0.28 89 1018.6
20260507174005 51 23 0.9 1.7 0.00 0.00 0.28 88 1018.7
20260507173502 51 35 0.9 2.6 0.00 0.00 0.28 88 1018.8
20260507173005 51 356 0.9 2.6 0.00 0.00 0.28 88 1018.6
20260507172503 51 37 0.0 2.6 0.00 0.00 0.28 88 1018.5
20260507172003 51 349 0.9 2.6 0.00 0.00 0.28 88 1018.4
20260507171503 51 52 0.9 2.6 0.00 0.00 0.28 88 1018.4
20260507171005 51 55 2.6 4.3 0.00 0.00 0.28 88 1018.5
20260507170502 51 51 1.7 4.3 0.00 0.00 0.28 89 1018.2
20260507170003 51 56 1.7 1.7 0.00 0.00 0.28 89 1018.2
20260507165505 51 12 0.9 4.3 0.00 0.00 0.28 89 1018.3
20260507165004 51 35 0.9 5.2 0.00 0.00 0.28 89 1018.3
20260507164502 51 4 1.7 4.3 0.00 0.00 0.28 89 1018.1
20260507164006 51 27 0.9 4.3 0.00 0.00 0.28 88 1018.1
20260507163504 51 2 2.6 2.6 0.00 0.00 0.28 88 1017.8
20260507163003 52 359 0.9 1.7 0.00 0.00 0.28 87 1017.7
20260507162504 51 9 1.7 2.6 0.00 0.00 0.28 87 1017.7
20260507162002 51 20 0.9 4.3 0.00 0.00 0.28 88 1017.5
20260507161504 51 44 1.7 5.2 0.00 0.00 0.28 88 1017.4
20260507161002 51 119 2.6 4.3 0.00 0.00 0.28 88 1017.6
20260507160504 51 24 3.5 5.2 0.00 0.00 0.28 88 1017.4
20260507160003 51 37 1.7 2.6 0.00 0.00 0.28 88 1017.5
20260507155503 52 351 0.9 2.6 0.00 0.00 0.28 88 1017.6
20260507155003 52 28 0.9 4.3 0.00 0.00 0.28 88 1017.5
20260507154503 52 23 1.7 5.2 0.00 0.00 0.28 88 1017.4
20260507154004 51 15 0.9 2.6 0.00 0.00 0.28 89 1017.4
20260507153503 51 11 4.3 6.1 0.00 0.00 0.28 89 1017.4
20260507153003 51 22 1.7 2.6 0.00 0.00 0.28 90 1017.3
20260507152502 51 10 1.7 6.1 0.00 0.00 0.28 90 1017.3
20260507152004 52 356 2.6 5.2 0.00 0.00 0.28 90 1017.6
20260507151504 52 342 4.3 6.1 0.00 0.00 0.28 90 1017.4
20260507151002 52 29 0.9 4.3 0.00 0.00 0.28 90 1017.4
20260507150503 52 36 0.0 6.1 0.00 0.00 0.28 90 1017.4
20260507150003 52 354 2.6 4.3 0.00 0.00 0.28 90 1017.0
20260507145504 52 18 0.9 5.2 0.00 0.00 0.28 90 1017.0
20260507145003 52 347 6.1 7.8 0.00 0.00 0.28 90 1017.1
20260507144503 52 27 2.6 6.1 0.00 0.00 0.28 89 1017.0
20260507144004 53 327 2.6 5.2 0.00 0.00 0.28 90 1017.0
20260507143503 53 1 1.7 4.3 0.00 0.00 0.28 90 1016.8
20260507143004 53 21 3.5 5.2 0.00 0.00 0.28 90 1017.0
20260507142506 53 349 3.5 5.2 0.00 0.00 0.28 89 1017.2
20260507142004 53 333 1.7 6.1 0.00 0.00 0.28 89 1017.1
20260507141505 53 342 1.7 5.2 0.00 0.00 0.28 88 1016.9
20260507141007 54 22 0.9 6.1 0.00 0.00 0.28 87 1017.0
20260507140503 54 354 1.7 6.1 0.00 0.00 0.28 88 1017.2
20260507140004 53 356 1.7 2.6 0.00 0.00 0.28 89 1017.2
20260507135502 53 24 0.9 6.1 0.00 0.00 0.28 88 1017.2
20260507135004 54 17 1.7 5.2 0.00 0.00 0.28 88 1017.0
20260507134504 53 344 2.6 2.6 0.00 0.00 0.28 89 1017.1
20260507134002 53 0 2.6 7.0 0.00 0.00 0.28 88 1016.9
20260507133503 54 24 4.3 6.1 0.00 0.00 0.28 88 1017.0
20260507133002 54 10 0.9 4.3 0.00 0.00 0.28 88 1017.0
20260507132504 54 34 0.0 2.6 0.00 0.00 0.28 89 1017.0
20260507132004 54 27 3.5 6.1 0.00 0.00 0.28 88 1016.9
20260507131503 54 13 3.5 5.2 0.00 0.00 0.28 89 1017.0
20260507131004 54 343 1.7 4.3 0.00 0.00 0.28 88 1016.8
20260507130506 54 348 3.5 7.0 0.00 0.00 0.28 89 1016.7
20260507130004 53 13 0.9 5.2 0.00 0.00 0.28 90 1016.7
20260507125503 54 26 2.6 5.2 0.00 0.00 0.28 88 1016.9
20260507125004 54 23 0.9 2.6 0.00 0.00 0.28 89 1016.9
20260507124504 54 33 1.7 4.3 0.00 0.00 0.28 89 1016.8
20260507124002 54 19 0.9 4.3 0.00 0.00 0.28 89 1016.8
20260507123502 54 0 0.9 2.6 0.00 0.00 0.28 89 1016.8
20260507123003 54 358 1.7 1.7 0.00 0.00 0.28 90 1016.7
20260507122503 54 344 0.0 2.6 0.00 0.00 0.28 90 1016.8
20260507122003 54 21 0.9 2.6 0.00 0.00 0.28 91 1016.7
20260507121506 53 352 1.7 2.6 0.00 0.00 0.28 92 1016.5
20260507121004 53 14 1.7 4.3 0.00 0.00 0.28 91 1016.7
20260507120504 53 10 0.9 4.3 0.00 0.00 0.28 92 1016.6
20260507120004 53 20 2.6 4.3 0.00 0.00 0.28 92 1016.6
20260507115503 53 21 2.6 2.6 0.00 0.00 0.28 93 1016.6
20260507115003 53 44 0.0 0.9 0.00 0.00 0.28 93 1016.6
20260507114503 53 41 0.9 5.2 0.00 0.00 0.28 93 1016.5
20260507114006 52 19 0.0 1.7 0.00 0.00 0.28 93 1016.4
20260507113503 52 12 1.7 2.6 0.00 0.00 0.28 93 1016.4
20260507113007 52 335 1.7 4.3 0.00 0.00 0.28 93 1016.3
20260507112504 53 13 3.5 4.3 0.00 0.00 0.28 93 1016.5
20260507112003 53 15 2.6 4.3 0.00 0.00 0.28 93 1016.4
20260507111506 53 358 0.0 2.6 0.00 0.00 0.28 94 1016.2
20260507111003 52 11 0.9 2.6 0.00 0.00 0.28 94 1016.3
20260507110505 52 21 1.7 4.3 0.00 0.00 0.28 94 1016.0
20260507110002 52 6 2.6 2.6 0.00 0.00 0.28 94 1016.0
20260507105504 53 14 2.6 4.3 0.00 0.00 0.28 94 1016.0
20260507105003 53 349 1.7 2.6 0.00 0.00 0.28 95 1016.3
20260507104504 52 24 2.6 6.1 0.00 0.00 0.28 94 1016.1
20260507104006 52 18 0.9 4.3 0.00 0.00 0.28 94 1015.9
20260507103510 52 29 0.0 4.3 0.00 0.00 0.28 94 1015.8
20260507103003 52 359 0.9 2.6 0.00 0.00 0.28 95 1015.8
20260507102504 52 28 0.9 1.7 0.00 0.00 0.28 95 1016.0
20260507102004 53 355 2.6 4.3 0.00 0.00 0.28 94 1016.0
20260507101507 53 335 1.7 2.6 0.00 0.00 0.28 94 1015.8
20260507101003 53 1 0.9 2.6 0.00 0.00 0.28 94 1015.8
20260507100502 53 349 1.7 4.3 0.00 0.00 0.28 94 1015.7
20260507100005 53 326 1.7 2.6 0.00 0.00 0.28 94 1015.6
20260507095502 53 348 1.7 2.6 0.00 0.00 0.28 94 1015.5
20260507095002 53 355 1.7 2.6 0.00 0.00 0.28 94 1015.6
20260507094503 53 355 0.9 2.6 0.00 0.00 0.28 94 1015.4
20260507094002 53 25 0.9 1.7 0.00 0.00 0.28 94 1015.6
20260507093504 53 16 0.9 1.7 0.00 0.00 0.28 94 1015.2
20260507093003 54 9 1.7 4.3 0.00 0.00 0.28 94 1015.4
20260507092503 53 32 0.0 0.9 0.00 0.00 0.28 94 1015.2
20260507092002 53 359 0.9 1.7 0.00 0.00 0.28 95 1015.5
20260507091503 53 7 0.9 1.7 0.00 0.00 0.28 94 1015.0
20260507091003 54 342 1.7 2.6 0.00 0.00 0.28 94 1015.1
20260507090503 54 348 0.9 0.9 0.00 0.00 0.28 95 1015.0
20260507090002 54 344 0.9 1.7 0.00 0.00 0.28 95 1014.8
20260507085502 54 10 0.9 1.7 0.00 0.00 0.28 95 1014.9
20260507085003 54 24 0.0 0.9 0.00 0.00 0.28 95 1014.8
20260507084502 54 23 0.9 0.9 0.00 0.00 0.28 95 1014.8
20260507084003 54 11 0.0 0.9 0.00 0.00 0.28 95 1014.7
20260507083504 54 355 2.6 2.6 0.00 0.00 0.28 95 1014.7
20260507083005 54 5 0.0 2.6 0.00 0.00 0.28 95 1014.6
20260507082503 54 48 0.9 1.7 0.00 0.00 0.28 95 1014.6
20260507082003 54 43 0.9 1.7 0.00 0.00 0.28 95 1014.4
20260507081504 53 3 0.0 0.9 0.00 0.00 0.28 95 1014.3
20260507081002 53 13 1.7 2.6 0.00 0.00 0.28 95 1014.3
20260507080503 53 9 0.9 1.7 0.00 0.00 0.28 95 1014.1
20260507080004 53 20 0.0 1.7 0.00 0.00 0.28 95 1014.2
20260507075502 53 28 0.9 2.6 0.00 0.00 0.28 95 1014.4
20260507075003 53 357 0.9 0.9 0.00 0.00 0.28 96 1014.1
20260507074503 53 27 0.9 0.9 0.00 0.00 0.28 96 1014.3
20260507074004 53 14 0.9 0.9 0.00 0.00 0.28 96 1014.0
20260507073509 53 44 0.0 1.7 0.00 0.00 0.28 95 1014.1
20260507073002 53 42 0.0 0.9 0.00 0.00 0.28 95 1014.3
20260507072503 53 43 0.0 1.7 0.00 0.00 0.28 95 1014.1
20260507072003 53 353 0.0 1.7 0.00 0.00 0.28 95 1014.0
20260507071504 53 1 1.7 1.7 0.00 0.00 0.28 95 1014.0
20260507071004 53 41 0.0 0.9 0.00 0.00 0.28 95 1014.0
20260507070504 53 50 0.0 0.9 0.00 0.00 0.28 95 1014.1
20260507070010 53 12 0.9 0.9 0.00 0.00 0.28 95 1013.9
20260507065503 53 15 0.9 2.6 0.00 0.00 0.28 95 1013.7
20260507065002 53 51 0.0 1.7 0.00 0.00 0.28 95 1013.9
20260507064504 53 26 1.7 2.6 0.00 0.00 0.28 95 1013.9
20260507064003 53 49 0.9 1.7 0.00 0.00 0.28 95 1013.6
20260507063503 53 61 1.7 2.6 0.00 0.00 0.28 96 1013.6
20260507063003 53 36 1.7 2.6 0.00 0.00 0.28 96 1013.6
20260507062504 53 52 1.7 4.3 0.00 0.00 0.28 96 1013.4
20260507062003 53 358 0.9 2.6 0.00 0.00 0.28 96 1013.3
20260507061505 53 347 1.7 2.6 0.00 0.00 0.28 96 1013.4
20260507061005 53 356 0.9 2.6 0.00 0.00 0.28 96 1013.3
20260507060502 53 37 0.9 1.7 0.00 0.00 0.28 97 1013.4
20260507060003 53 39 0.0 2.6 0.00 0.00 0.28 96 1013.1
20260507055503 53 25 1.7 2.6 0.00 0.00 0.28 97 1013.2
20260507055004 53 326 2.6 4.3 0.00 0.00 0.28 97 1013.1
20260507054504 53 345 1.7 2.6 0.00 0.00 0.28 97 1013.0
20260507054003 53 342 0.9 2.6 0.00 0.00 0.28 97 1013.0
20260507053507 53 334 3.5 5.2 0.00 0.00 0.28 97 1012.8
20260507053003 53 3 0.9 4.3 0.00 0.00 0.28 97 1012.9
20260507052503 53 42 0.9 2.6 0.00 0.00 0.28 97 1013.0
20260507052003 52 359 2.6 4.3 0.00 0.00 0.28 97 1012.7
20260507051504 52 26 0.0 1.7 0.00 0.00 0.28 97 1012.6
20260507051003 52 0 2.6 4.3 0.00 0.00 0.28 97 1012.7
20260507050505 52 356 0.9 1.7 0.00 0.00 0.28 97 1012.8
20260507050003 53 8 0.9 2.6 0.00 0.00 0.28 97 1012.7
20260507045503 53 355 1.7 2.6 0.00 0.00 0.28 97 1012.5
20260507045004 53 5 0.9 0.9 0.00 0.00 0.28 98 1012.5
20260507044502 53 37 0.0 1.7 0.00 0.00 0.28 97 1012.6
20260507044005 53 3 0.9 1.7 0.00 0.00 0.28 97 1012.8
20260507043510 53 20 0.0 1.7 0.00 0.00 0.28 97 1012.6
20260507043004 53 26 0.9 2.6 0.00 0.00 0.28 97 1012.5
20260507042504 53 26 0.9 1.7 0.00 0.00 0.28 98 1012.5
20260507042003 53 16 1.7 1.7 0.00 0.00 0.28 98 1012.5
20260507041504 53 22 0.9 1.7 0.00 0.00 0.28 97 1012.2
20260507041003 53 30 0.0 0.9 0.00 0.00 0.28 98 1012.2
20260507040504 53 19 0.0 0.9 0.00 0.00 0.28 98 1012.3
20260507040003 53 22 0.9 1.7 0.00 0.00 0.28 98 1012.3
20260507035505 54 37 0.0 0.9 0.00 0.00 0.28 98 1012.2
20260507035003 54 4 0.9 0.9 0.00 0.00 0.28 98 1011.9